Winona, MN

3:59 PM CDT on March 25, 2017 (GMT -0500)
Winona Municipal-Conrad

Weather History for KONA - December, 2011

Change the Weather History Date:

Saturday, December 10, 2011

  Actual Average Record
Temperature  
Mean Temperature 13 °F -  
Max Temperature 26 °F 35 °F 51 °F (2015)
Min Temperature 0 °F 20 °F 0 °F (2000)
Degree Days  
Heating Degree Days 52    
Moisture  
Dew Point 3 °F    
Average Humidity 66    
Maximum Humidity 85    
Minimum Humidity 46    
Precipitation  
Precipitation 0.00 in - - ()
Sea Level Pressure  
Sea Level Pressure 30.34 in    
Wind  
Wind Speed 2 mph (SSW)    
Max Wind Speed 16 mph    
Max Gust Speed 22 mph    
Visibility 10 miles    
Events      
Averages and records for this station are not official NWS values.
T = Trace of Precipitation, MM = Missing Value Source: NWS Daily Summary

Daily Weather History Graph

Daily Weather History Graph

Search for Another Location

Airport or City:

Trip Planner

Search our weather history database for the weather conditions in past years. The results will help you decide how hot, cold, wet, or windy it might be!

Date:

Astronomy

Dec. 10, 2011 Rise Set
Actual Time 7:30 AM CST 4:28 PM CST
Civil Twilight 6:57 AM CST 5:01 PM CST
Nautical Twilight 6:21 AM CST 5:37 PM CST
Astronomical Twilight 5:46 AM CST 6:12 PM CST
Moon 4:42 PM CST (12/10) 7:31 AM CST (12/10)
Length of Visible Light 10h 03m
Length of Day
8h 57m
Full, 100% of the Moon is Illuminated
Dec 10
Full
Dec 17
Last Quarter
Dec 24
New
Jan 1
First Quarter
Jan 9
Full

Hourly Weather History & Observations

Time (CST) Temp. Windchill Dew Point Humidity Pressure Visibility Wind Dir Wind Speed Gust Speed Precip Events Conditions
12:16 AM 3.2 °F - -2.2 °F 78% 30.41 in 10.0 mi Calm Calm - N/A   Clear
12:35 AM 1.4 °F -6.2 °F -5.8 °F 72% 30.40 in 10.0 mi NW 3.5 mph - N/A   Clear
12:56 AM -0.4 °F - -4.0 °F 85% 30.41 in 10.0 mi Calm Calm - N/A   Clear
1:16 AM -0.4 °F - -4.0 °F 85% 30.40 in 10.0 mi Calm Calm - N/A   Clear
1:35 AM -0.4 °F - -5.8 °F 78% 30.40 in 10.0 mi Calm Calm - N/A   Clear
1:56 AM -0.4 °F - -4.0 °F 85% 30.40 in 10.0 mi Calm Calm - N/A   Clear
2:16 AM 1.4 °F - -4.0 °F 78% 30.41 in 10.0 mi Calm Calm - N/A   Clear
2:35 AM -0.4 °F - -4.0 °F 85% 30.42 in 10.0 mi Calm Calm - N/A   Clear
2:56 AM -0.4 °F - -5.8 °F 78% 30.42 in 10.0 mi Calm Calm - N/A   Clear
3:16 AM 3.2 °F - -4.0 °F 72% 30.42 in 10.0 mi Calm Calm - N/A   Clear
3:35 AM 3.2 °F -4.2 °F -4.0 °F 72% 30.41 in 10.0 mi SW 3.5 mph - N/A   Clear
3:56 AM 3.2 °F -4.2 °F -5.8 °F 66% 30.40 in 10.0 mi SSW 3.5 mph - N/A   Clear
4:16 AM 3.2 °F - -5.8 °F 66% 30.40 in 10.0 mi Calm Calm - N/A   Clear
4:36 AM 3.2 °F - -5.8 °F 66% 30.39 in 10.0 mi Calm Calm - N/A   Clear
4:56 AM 3.2 °F -4.2 °F -5.8 °F 66% 30.40 in 10.0 mi NNW 3.5 mph - N/A   Clear
5:16 AM 3.2 °F - -5.8 °F 66% 30.40 in 10.0 mi Calm Calm - N/A   Clear
5:35 AM 1.4 °F - -7.6 °F 66% 30.41 in 10.0 mi Calm Calm - N/A   Clear
5:56 AM 1.4 °F - -7.6 °F 66% 30.40 in 10.0 mi Calm Calm - N/A   Clear
6:16 AM 3.2 °F - -5.8 °F 66% 30.39 in 10.0 mi Calm Calm - N/A   Clear
6:35 AM 3.2 °F -4.2 °F -5.8 °F 66% 30.38 in 10.0 mi East 3.5 mph - N/A   Clear
6:55 AM 3.2 °F - -5.8 °F 66% 30.39 in 10.0 mi Calm Calm - N/A   Scattered Clouds
7:16 AM 3.2 °F -4.2 °F -5.8 °F 66% 30.39 in 10.0 mi SW 3.5 mph - N/A   Scattered Clouds
7:35 AM 5.0 °F - -5.8 °F 61% 30.39 in 10.0 mi Calm Calm - N/A   Scattered Clouds
7:55 AM 3.2 °F - -5.8 °F 66% 30.39 in 10.0 mi Calm Calm - N/A   Clear
8:16 AM 3.2 °F - -5.8 °F 66% 30.39 in 10.0 mi Calm Calm - N/A   Clear
8:35 AM 6.8 °F - -4.0 °F 61% 30.38 in 10.0 mi Calm Calm - N/A   Clear
8:56 AM 6.8 °F -0.1 °F -4.0 °F 61% 30.38 in 10.0 mi ESE 3.5 mph - N/A   Clear
9:15 AM 8.6 °F - -2.2 °F 62% 30.38 in 10.0 mi Calm Calm - N/A   Clear
9:35 AM 12.2 °F 4.3 °F -0.4 °F 57% 30.38 in 10.0 mi ESE 4.6 mph - N/A   Clear
9:56 AM 12.2 °F 4.3 °F -0.4 °F 57% 30.36 in 10.0 mi SSW 4.6 mph - N/A   Scattered Clouds
10:16 AM 14.0 °F 2.0 °F -0.4 °F 53% 30.34 in 10.0 mi SW 9.2 mph 16.1 mph N/A   Scattered Clouds
10:35 AM 17.6 °F 9.3 °F 1.4 °F 49% 30.35 in 10.0 mi SSW 5.8 mph - N/A   Clear
10:56 AM 17.6 °F 10.7 °F 1.4 °F 49% 30.33 in 10.0 mi SW 4.6 mph - N/A   Mostly Cloudy
11:15 AM 17.6 °F 10.7 °F 1.4 °F 49% 30.34 in 10.0 mi SSW 4.6 mph - N/A   Overcast
11:35 AM 19.4 °F 14.3 °F 3.2 °F 49% 30.33 in 10.0 mi South 3.5 mph - N/A   Overcast
11:56 AM 21.2 °F 14.9 °F 3.2 °F 46% 30.32 in 10.0 mi SW 4.6 mph - N/A   Scattered Clouds
12:16 PM 21.2 °F 13.6 °F 5.0 °F 50% 30.30 in 10.0 mi SSW 5.8 mph - N/A   Mostly Cloudy
12:35 PM 23.0 °F 13.9 °F 8.6 °F 54% 30.29 in 10.0 mi SW 8.1 mph - N/A   Scattered Clouds
12:56 PM 23.0 °F 13.9 °F 10.4 °F 59% 30.28 in 10.0 mi SW 8.1 mph 16.1 mph N/A   Clear
1:15 PM 24.8 °F 15.3 °F 10.4 °F 54% 30.28 in 10.0 mi SSW 9.2 mph 19.6 mph N/A   Clear
1:35 PM 26.6 °F 19.1 °F 14.0 °F 59% 30.27 in 10.0 mi SW 6.9 mph - N/A   Clear
1:56 PM 26.6 °F 14.3 °F 14.0 °F 59% 30.26 in 10.0 mi SW 16.1 mph 20.7 mph N/A   Clear
2:16 PM 26.6 °F 17.5 °F 15.8 °F 64% 30.26 in 10.0 mi SW 9.2 mph - N/A   Clear
2:35 PM 26.6 °F 16.8 °F 17.6 °F 69% 30.25 in 10.0 mi SW 10.4 mph 21.9 mph N/A   Clear
2:56 PM 26.6 °F 20.0 °F 17.6 °F 69% 30.25 in 10.0 mi SSW 5.8 mph - N/A   Clear
3:16 PM 26.6 °F 18.2 °F 17.6 °F 69% 30.24 in 10.0 mi SSW 8.1 mph - N/A   Clear
3:35 PM 26.6 °F 22.6 °F 19.4 °F 74% 30.24 in 10.0 mi SSW 3.5 mph - N/A   Clear
3:56 PM 26.6 °F 21.2 °F 19.4 °F 74% 30.24 in 10.0 mi SSW 4.6 mph - N/A   Clear
4:16 PM 26.6 °F 22.6 °F 19.4 °F 74% 30.25 in 10.0 mi South 3.5 mph - N/A   Clear
4:35 PM 26.6 °F 22.6 °F 19.4 °F 74% 30.25 in 10.0 mi SSW 3.5 mph - N/A   Clear
4:56 PM 26.6 °F 21.2 °F 19.4 °F 74% 30.24 in 10.0 mi SSW 4.6 mph - N/A   Clear
5:16 PM 26.6 °F 21.2 °F 19.4 °F 74% 30.24 in 10.0 mi SSW 4.6 mph - N/A   Clear
5:35 PM 26.6 °F 21.2 °F 19.4 °F 74% 30.24 in 10.0 mi SSW 4.6 mph - N/A   Clear
5:56 PM 26.6 °F 21.2 °F 19.4 °F 74% 30.24 in 10.0 mi SSW 4.6 mph - N/A   Clear
6:16 PM 26.6 °F 22.6 °F 19.4 °F 74% 30.24 in 10.0 mi South 3.5 mph - N/A   Clear
6:35 PM 26.6 °F - 19.4 °F 74% 30.24 in 10.0 mi Calm Calm - N/A   Clear
6:56 PM 26.6 °F - 19.4 °F 74% 30.24 in 10.0 mi Calm Calm - N/A   Clear
7:16 PM 26.6 °F 21.2 °F 19.4 °F 74% 30.24 in 10.0 mi SW 4.6 mph - N/A   Clear
7:35 PM 26.6 °F 22.6 °F 19.4 °F 74% 30.24 in 10.0 mi SSW 3.5 mph - N/A   Clear
7:56 PM 26.6 °F 20.0 °F 19.4 °F 74% 30.24 in 10.0 mi SSW 5.8 mph - N/A   Clear
8:16 PM 26.6 °F 19.1 °F 21.2 °F 80% 30.23 in 10.0 mi SW 6.9 mph - N/A   Clear
8:35 PM 26.6 °F 22.6 °F 21.2 °F 80% 30.23 in 10.0 mi SSW 3.5 mph - N/A   Clear
8:56 PM 26.6 °F 22.6 °F 21.2 °F 80% 30.22 in 10.0 mi South 3.5 mph - N/A   Clear
9:16 PM 26.6 °F - 21.2 °F 80% 30.22 in 10.0 mi Calm Calm - N/A   Clear
9:35 PM 26.6 °F - 19.4 °F 74% 30.22 in 10.0 mi Calm Calm - N/A   Clear
9:56 PM 24.8 °F - 19.4 °F 80% 30.22 in 10.0 mi Calm Calm - N/A   Clear
10:16 PM 23.0 °F - 19.4 °F 86% 30.22 in 7.0 mi Calm Calm - N/A   Clear
10:35 PM 23.0 °F - 21.2 °F 93% 30.21 in 10.0 mi Calm Calm - N/A   Clear
10:56 PM 23.0 °F - 19.4 °F 86% 30.21 in 7.0 mi Calm Calm - N/A   Clear
11:15 PM 23.0 °F - 19.4 °F 86% 30.21 in 7.0 mi Calm Calm - N/A   Clear
11:36 PM 26.6 °F - 23.0 °F 86% 30.21 in 7.0 mi Calm Calm - N/A   Clear
11:56 PM 24.8 °F - 21.2 °F 86% 30.20 in 7.0 mi Calm Calm - N/A   Clear